![]() |
EMODnet Physics ERDDAP
Easier access to scientific data |
log in|
Brought to you by EMODnet Physics |
| Dataset Title: | NDBC - Collection of dew point temperature (DEWT) TimeSeries - IN SITU MultiPointTimeSeriesObservation
|
| Institution: | NDBC (Dataset ID: TS_DEWT_NDBC) |
| Information: | Summary
| License
| FGDC
| ISO 19115
| Metadata
| Background
| Subset
| Data Access Form
| Make a graph
|
| Name | Last modified | Size | Description | |
|---|---|---|---|---|
| Parent Directory | - | - | ||
| DSLN7_TS_DEWT_011990.nc | 31-Dec-2024 07:35 | 429249 | ||
| DSLN7_TS_DEWT_011991.nc | 31-Dec-2024 07:37 | 429246 | ||
| DSLN7_TS_DEWT_011992.nc | 31-Dec-2024 07:39 | 429155 | ||
| DSLN7_TS_DEWT_011994.nc | 31-Dec-2024 07:43 | 428767 | ||
| DSLN7_TS_DEWT_011995.nc | 31-Dec-2024 07:45 | 429285 | ||
| DSLN7_TS_DEWT_011996.nc | 31-Dec-2024 07:46 | 429273 | ||
| DSLN7_TS_DEWT_011999.nc | 31-Dec-2024 07:52 | 440166 | ||
| DSLN7_TS_DEWT_012000.nc | 31-Dec-2024 07:54 | 449556 | ||
| DSLN7_TS_DEWT_012001.nc | 31-Dec-2024 07:55 | 429273 | ||
| DSLN7_TS_DEWT_012002.nc | 31-Dec-2024 07:57 | 429258 | ||
| DSLN7_TS_DEWT_012003.nc | 31-Dec-2024 07:59 | 429284 | ||
| DSLN7_TS_DEWT_021989.nc | 31-Dec-2024 07:33 | 429267 | ||
| DSLN7_TS_DEWT_021990.nc | 31-Dec-2024 07:35 | 429278 | ||
| DSLN7_TS_DEWT_021991.nc | 31-Dec-2024 07:37 | 439406 | ||
| DSLN7_TS_DEWT_021992.nc | 31-Dec-2024 07:39 | 429284 | ||
| DSLN7_TS_DEWT_021994.nc | 31-Dec-2024 07:43 | 449277 | ||
| DSLN7_TS_DEWT_021995.nc | 31-Dec-2024 07:45 | 429285 | ||
| DSLN7_TS_DEWT_021996.nc | 31-Dec-2024 07:46 | 448667 | ||
| DSLN7_TS_DEWT_021999.nc | 31-Dec-2024 07:52 | 449008 | ||
| DSLN7_TS_DEWT_022000.nc | 31-Dec-2024 07:54 | 450075 | ||
| DSLN7_TS_DEWT_022001.nc | 31-Dec-2024 07:56 | 449297 | ||
| DSLN7_TS_DEWT_022002.nc | 31-Dec-2024 07:57 | 448458 | ||
| DSLN7_TS_DEWT_022003.nc | 31-Dec-2024 07:59 | 450897 | ||
| DSLN7_TS_DEWT_031989.nc | 31-Dec-2024 07:34 | 449318 | ||
| DSLN7_TS_DEWT_031990.nc | 31-Dec-2024 07:36 | 449998 | ||
| DSLN7_TS_DEWT_031991.nc | 31-Dec-2024 07:37 | 449149 | ||
| DSLN7_TS_DEWT_031992.nc | 31-Dec-2024 07:39 | 449054 | ||
| DSLN7_TS_DEWT_031994.nc | 31-Dec-2024 07:43 | 450053 | ||
| DSLN7_TS_DEWT_031995.nc | 31-Dec-2024 07:45 | 449986 | ||
| DSLN7_TS_DEWT_031996.nc | 31-Dec-2024 07:47 | 448731 | ||
| DSLN7_TS_DEWT_031999.nc | 31-Dec-2024 07:52 | 431822 | ||
| DSLN7_TS_DEWT_032000.nc | 31-Dec-2024 07:54 | 429485 | ||
| DSLN7_TS_DEWT_032001.nc | 31-Dec-2024 07:56 | 448660 | ||
| DSLN7_TS_DEWT_032002.nc | 31-Dec-2024 07:57 | 450282 | ||
| DSLN7_TS_DEWT_032003.nc | 31-Dec-2024 07:59 | 448607 | ||
| DSLN7_TS_DEWT_041989.nc | 31-Dec-2024 07:34 | 449117 | ||
| DSLN7_TS_DEWT_041990.nc | 31-Dec-2024 07:36 | 429470 | ||
| DSLN7_TS_DEWT_041991.nc | 31-Dec-2024 07:38 | 429485 | ||
| DSLN7_TS_DEWT_041994.nc | 31-Dec-2024 07:43 | 429481 | ||
| DSLN7_TS_DEWT_041995.nc | 31-Dec-2024 07:45 | 429471 | ||
| DSLN7_TS_DEWT_041996.nc | 31-Dec-2024 07:47 | 2688700 | ||
| DSLN7_TS_DEWT_041997.nc | 31-Dec-2024 07:49 | 429594 | ||
| DSLN7_TS_DEWT_041999.nc | 31-Dec-2024 07:52 | 429599 | ||
| DSLN7_TS_DEWT_042000.nc | 31-Dec-2024 07:54 | 429584 | ||
| DSLN7_TS_DEWT_042001.nc | 31-Dec-2024 07:56 | 429607 | ||
| DSLN7_TS_DEWT_042002.nc | 31-Dec-2024 07:58 | 429608 | ||
| DSLN7_TS_DEWT_051989.nc | 31-Dec-2024 07:34 | 429615 | ||
| DSLN7_TS_DEWT_051990.nc | 31-Dec-2024 07:36 | 450924 | ||
| DSLN7_TS_DEWT_051991.nc | 31-Dec-2024 07:38 | 451557 | ||
| DSLN7_TS_DEWT_051994.nc | 31-Dec-2024 07:43 | 429608 | ||
| DSLN7_TS_DEWT_051995.nc | 31-Dec-2024 07:45 | 429602 | ||
| DSLN7_TS_DEWT_051996.nc | 31-Dec-2024 07:47 | 431919 | ||
| DSLN7_TS_DEWT_051997.nc | 31-Dec-2024 07:49 | 429611 | ||
| DSLN7_TS_DEWT_051999.nc | 31-Dec-2024 07:52 | 429601 | ||
| DSLN7_TS_DEWT_052000.nc | 31-Dec-2024 07:54 | 429602 | ||
| DSLN7_TS_DEWT_052001.nc | 31-Dec-2024 07:56 | 429606 | ||
| DSLN7_TS_DEWT_052002.nc | 31-Dec-2024 07:58 | 443994 | ||
| DSLN7_TS_DEWT_061989.nc | 31-Dec-2024 07:34 | 429602 | ||
| DSLN7_TS_DEWT_061990.nc | 31-Dec-2024 07:36 | 452195 | ||
| DSLN7_TS_DEWT_061991.nc | 31-Dec-2024 07:38 | 451513 | ||
| DSLN7_TS_DEWT_061994.nc | 31-Dec-2024 07:44 | 449179 | ||
| DSLN7_TS_DEWT_061995.nc | 31-Dec-2024 07:45 | 450809 | ||
| DSLN7_TS_DEWT_061996.nc | 31-Dec-2024 07:47 | 450196 | ||
| DSLN7_TS_DEWT_061997.nc | 31-Dec-2024 07:49 | 452071 | ||
| DSLN7_TS_DEWT_061999.nc | 31-Dec-2024 07:53 | 450669 | ||
| DSLN7_TS_DEWT_062000.nc | 31-Dec-2024 07:54 | 450238 | ||
| DSLN7_TS_DEWT_062001.nc | 31-Dec-2024 07:56 | 450910 | ||
| DSLN7_TS_DEWT_062002.nc | 31-Dec-2024 07:58 | 450223 | ||
| DSLN7_TS_DEWT_071989.nc | 31-Dec-2024 07:34 | 451007 | ||
| DSLN7_TS_DEWT_071990.nc | 31-Dec-2024 07:36 | 451626 | ||
| DSLN7_TS_DEWT_071991.nc | 31-Dec-2024 07:38 | 450456 | ||
| DSLN7_TS_DEWT_071994.nc | 31-Dec-2024 07:44 | 429828 | ||
| DSLN7_TS_DEWT_071995.nc | 31-Dec-2024 07:45 | 429824 | ||
| DSLN7_TS_DEWT_071996.nc | 31-Dec-2024 07:47 | 450860 | ||
| DSLN7_TS_DEWT_071997.nc | 31-Dec-2024 07:49 | 451822 | ||
| DSLN7_TS_DEWT_071999.nc | 31-Dec-2024 07:53 | 450924 | ||
| DSLN7_TS_DEWT_072000.nc | 31-Dec-2024 07:54 | 449616 | ||
| DSLN7_TS_DEWT_072001.nc | 31-Dec-2024 07:56 | 429854 | ||
| DSLN7_TS_DEWT_072002.nc | 31-Dec-2024 07:58 | 429806 | ||
| DSLN7_TS_DEWT_081990.nc | 31-Dec-2024 07:36 | 429829 | ||
| DSLN7_TS_DEWT_081991.nc | 31-Dec-2024 07:38 | 429831 | ||
| DSLN7_TS_DEWT_081994.nc | 31-Dec-2024 07:44 | 5564884 | ||
| DSLN7_TS_DEWT_081995.nc | 31-Dec-2024 07:46 | 429268 | ||
| DSLN7_TS_DEWT_081996.nc | 31-Dec-2024 07:47 | 429246 | ||
| DSLN7_TS_DEWT_081997.nc | 31-Dec-2024 07:49 | 429265 | ||
| DSLN7_TS_DEWT_081999.nc | 31-Dec-2024 07:53 | 429283 | ||
| DSLN7_TS_DEWT_082000.nc | 31-Dec-2024 07:55 | 429277 | ||
| DSLN7_TS_DEWT_082001.nc | 31-Dec-2024 07:56 | 429277 | ||
| DSLN7_TS_DEWT_082002.nc | 31-Dec-2024 07:58 | 449574 | ||
| DSLN7_TS_DEWT_091989.nc | 31-Dec-2024 07:35 | 449456 | ||
| DSLN7_TS_DEWT_091990.nc | 31-Dec-2024 07:37 | 429279 | ||
| DSLN7_TS_DEWT_091991.nc | 31-Dec-2024 07:38 | 436910 | ||
| DSLN7_TS_DEWT_091993.nc | 31-Dec-2024 07:42 | 429279 | ||
| DSLN7_TS_DEWT_091994.nc | 31-Dec-2024 07:44 | 429255 | ||
| DSLN7_TS_DEWT_091995.nc | 31-Dec-2024 07:46 | 429285 | ||
| DSLN7_TS_DEWT_091996.nc | 31-Dec-2024 07:48 | 429278 | ||
| DSLN7_TS_DEWT_091997.nc | 31-Dec-2024 07:49 | 429273 | ||
| DSLN7_TS_DEWT_091999.nc | 31-Dec-2024 07:53 | 429278 | ||
| DSLN7_TS_DEWT_092000.nc | 31-Dec-2024 07:55 | 429282 | ||
| DSLN7_TS_DEWT_092002.nc | 31-Dec-2024 07:58 | 450687 | ||
| DSLN7_TS_DEWT_101989.nc | 31-Dec-2024 07:35 | 449675 | ||
| DSLN7_TS_DEWT_101990.nc | 31-Dec-2024 07:37 | 450067 | ||
| DSLN7_TS_DEWT_101991.nc | 31-Dec-2024 07:39 | 450626 | ||
| DSLN7_TS_DEWT_101993.nc | 31-Dec-2024 07:42 | 449267 | ||
| DSLN7_TS_DEWT_101994.nc | 31-Dec-2024 07:44 | 449928 | ||
| DSLN7_TS_DEWT_101995.nc | 31-Dec-2024 07:46 | 450622 | ||
| DSLN7_TS_DEWT_101996.nc | 31-Dec-2024 07:48 | 447817 | ||
| DSLN7_TS_DEWT_101999.nc | 31-Dec-2024 07:53 | 450956 | ||
| DSLN7_TS_DEWT_102000.nc | 31-Dec-2024 07:55 | 449994 | ||
| DSLN7_TS_DEWT_102001.nc | 31-Dec-2024 07:57 | 449413 | ||
| DSLN7_TS_DEWT_102002.nc | 31-Dec-2024 07:58 | 450193 | ||
| DSLN7_TS_DEWT_111989.nc | 31-Dec-2024 07:35 | 449240 | ||
| DSLN7_TS_DEWT_111990.nc | 31-Dec-2024 07:37 | 429482 | ||
| DSLN7_TS_DEWT_111991.nc | 31-Dec-2024 07:39 | 429485 | ||
| DSLN7_TS_DEWT_111993.nc | 31-Dec-2024 07:42 | 449545 | ||
| DSLN7_TS_DEWT_111994.nc | 31-Dec-2024 07:44 | 450397 | ||
| DSLN7_TS_DEWT_111995.nc | 31-Dec-2024 07:46 | 450594 | ||
| DSLN7_TS_DEWT_111996.nc | 31-Dec-2024 07:48 | 449999 | ||
| DSLN7_TS_DEWT_111999.nc | 31-Dec-2024 07:53 | 429341 | ||
| DSLN7_TS_DEWT_112000.nc | 31-Dec-2024 07:55 | 429531 | ||
| DSLN7_TS_DEWT_112001.nc | 31-Dec-2024 07:57 | 429485 | ||
| DSLN7_TS_DEWT_112002.nc | 31-Dec-2024 07:59 | 429481 | ||
| DSLN7_TS_DEWT_121989.nc | 31-Dec-2024 07:35 | 5509592 | ||
| DSLN7_TS_DEWT_121990.nc | 31-Dec-2024 07:37 | 429594 | ||
| DSLN7_TS_DEWT_121991.nc | 31-Dec-2024 07:39 | 429596 | ||
| DSLN7_TS_DEWT_121993.nc | 31-Dec-2024 07:43 | 429598 | ||
| DSLN7_TS_DEWT_121994.nc | 31-Dec-2024 07:44 | 429603 | ||
| DSLN7_TS_DEWT_121995.nc | 31-Dec-2024 07:46 | 429571 | ||
| DSLN7_TS_DEWT_121996.nc | 31-Dec-2024 07:48 | 429585 | ||
| DSLN7_TS_DEWT_121998.nc | 31-Dec-2024 07:52 | 449590 | ||
| DSLN7_TS_DEWT_121999.nc | 31-Dec-2024 07:54 | 450922 | ||
| DSLN7_TS_DEWT_122000.nc | 31-Dec-2024 07:55 | 429604 | ||
| DSLN7_TS_DEWT_122001.nc | 31-Dec-2024 07:57 | 450867 | ||
| DSLN7_TS_DEWT_122002.nc | 31-Dec-2024 07:59 | 429608 | ||